TimeCDT,TemperatureF,Dew PointF,Humidity,Sea Level PressureIn,VisibilityMPH,Wind Direction,Wind SpeedMPH,Gust SpeedMPH,PrecipitationIn,Events,Conditions,WindDirDegrees,DateUTC
12:15 AM,69.1,63.7,83,29.95,10.0,WSW,16.1,23.0,N/A,,Scattered Clouds,240,2013-06-16 05:15:00
12:35 AM,68.9,63.0,81,29.95,10.0,WSW,11.5,-,N/A,,Mostly Cloudy,250,2013-06-16 05:35:00
12:55 AM,68.9,62.6,80,29.95,10.0,West,8.1,-,N/A,,Scattered Clouds,260,2013-06-16 05:55:00
1:15 AM,68.9,62.2,79,29.94,10.0,West,9.2,-,N/A,,Scattered Clouds,260,2013-06-16 06:15:00
1:35 AM,68.4,62.6,82,29.92,10.0,West,5.8,-,N/A,,Mostly Cloudy,260,2013-06-16 06:35:00
1:55 AM,67.5,62.6,84,29.91,10.0,West,3.5,-,N/A,,Scattered Clouds,260,2013-06-16 06:55:00
2:15 AM,66.9,63.0,87,29.90,10.0,West,4.6,-,N/A,,Scattered Clouds,280,2013-06-16 07:15:00
2:35 AM,67.1,62.8,86,29.89,10.0,WSW,4.6,-,N/A,,Scattered Clouds,240,2013-06-16 07:35:00
2:55 AM,66.7,63.0,88,29.90,10.0,SW,3.5,-,N/A,,Clear,230,2013-06-16 07:55:00
3:15 AM,66.2,63.0,89,29.90,10.0,SW,6.9,-,N/A,,Clear,230,2013-06-16 08:15:00
3:35 AM,66.7,63.0,88,29.91,10.0,WSW,4.6,-,N/A,,Clear,250,2013-06-16 08:35:00
3:55 AM,66.2,63.0,89,29.91,10.0,SW,4.6,-,N/A,,Clear,230,2013-06-16 08:55:00
4:15 AM,66.2,63.0,89,29.92,10.0,SW,5.8,-,N/A,,Scattered Clouds,230,2013-06-16 09:15:00
4:35 AM,66.2,63.1,90,29.93,10.0,SW,6.9,-,N/A,,Scattered Clouds,230,2013-06-16 09:35:00
4:55 AM,66.6,63.1,89,29.93,10.0,WSW,9.2,-,N/A,,Mostly Cloudy,240,2013-06-16 09:55:00
5:15 AM,66.9,63.1,88,29.93,10.0,WSW,8.1,-,N/A,,Mostly Cloudy,250,2013-06-16 10:15:00
5:35 AM,66.7,63.0,88,29.95,10.0,WSW,6.9,-,N/A,,Overcast,250,2013-06-16 10:35:00
5:55 AM,67.1,62.8,86,29.94,10.0,West,6.9,-,N/A,,Mostly Cloudy,260,2013-06-16 10:55:00
6:15 AM,66.6,63.1,89,29.94,10.0,WSW,5.8,-,N/A,,Scattered Clouds,250,2013-06-16 11:15:00
6:35 AM,66.7,63.1,88,29.94,10.0,WSW,8.1,-,N/A,,Clear,240,2013-06-16 11:35:00
6:55 AM,67.3,63.1,87,29.94,10.0,West,9.2,-,N/A,,Scattered Clouds,260,2013-06-16 11:55:00
7:15 AM,68.4,63.5,84,29.95,10.0,WSW,9.2,-,N/A,,Scattered Clouds,250,2013-06-16 12:15:00
7:35 AM,69.1,63.7,83,29.95,10.0,WSW,12.7,18.4,N/A,,Clear,240,2013-06-16 12:35:00
7:55 AM,70.0,63.7,80,29.95,10.0,West,15.0,18.4,N/A,,Clear,260,2013-06-16 12:55:00
8:15 AM,71.8,64.6,78,29.95,10.0,WSW,15.0,-,N/A,,Clear,250,2013-06-16 13:15:00
8:35 AM,72.0,64.4,77,29.96,10.0,West,10.4,18.4,N/A,,Scattered Clouds,260,2013-06-16 13:35:00
8:55 AM,72.9,65.1,77,29.95,10.0,West,11.5,17.3,N/A,,Mostly Cloudy,260,2013-06-16 13:55:00
9:15 AM,73.4,65.5,76,29.95,10.0,West,12.7,18.4,N/A,,Overcast,260,2013-06-16 14:15:00
9:35 AM,71.6,64.9,79,29.95,10.0,West,11.5,18.4,N/A,,Overcast,260,2013-06-16 14:35:00
9:55 AM,72.1,65.1,78,29.95,10.0,West,10.4,-,N/A,,Overcast,260,2013-06-16 14:55:00
10:15 AM,72.1,65.5,79,29.96,10.0,West,10.4,-,N/A,,Overcast,270,2013-06-16 15:15:00
10:35 AM,72.0,65.5,80,29.96,10.0,West,11.5,-,N/A,,Overcast,270,2013-06-16 15:35:00
10:55 AM,72.5,65.8,80,29.96,10.0,WSW,11.5,-,N/A,,Overcast,250,2013-06-16 15:55:00
11:15 AM,73.4,66.0,78,29.95,10.0,WSW,10.4,-,N/A,,Overcast,250,2013-06-16 16:15:00
11:35 AM,73.4,66.0,78,29.96,10.0,West,9.2,-,N/A,,Overcast,280,2013-06-16 16:35:00
11:55 AM,73.8,66.4,78,29.95,10.0,West,9.2,-,N/A,,Overcast,270,2013-06-16 16:55:00
12:15 PM,73.8,66.7,79,29.95,10.0,West,6.9,-,N/A,,Overcast,270,2013-06-16 17:15:00
12:35 PM,75.4,67.5,76,29.96,10.0,WSW,5.8,-,N/A,,Overcast,250,2013-06-16 17:35:00
12:55 PM,75.6,67.1,75,29.95,10.0,West,9.2,-,N/A,,Overcast,280,2013-06-16 17:55:00
1:15 PM,75.7,67.1,74,29.95,10.0,West,8.1,-,N/A,,Overcast,260,2013-06-16 18:15:00
1:35 PM,75.9,66.6,73,29.95,10.0,WSW,5.8,-,N/A,,Overcast,250,2013-06-16 18:35:00
1:55 PM,76.3,67.3,74,29.95,10.0,WSW,8.1,-,N/A,,Overcast,250,2013-06-16 18:55:00
2:15 PM,78.4,67.1,68,29.95,10.0,WSW,10.4,17.3,N/A,,Mostly Cloudy,240,2013-06-16 19:15:00
2:35 PM,79.0,67.5,68,29.94,10.0,WSW,9.2,-,N/A,,Mostly Cloudy,250,2013-06-16 19:35:00
2:55 PM,78.6,66.9,67,29.94,10.0,WSW,9.2,-,N/A,,Overcast,250,2013-06-16 19:55:00
3:15 PM,79.0,67.1,67,29.94,10.0,WSW,8.1,-,N/A,,Mostly Cloudy,250,2013-06-16 20:15:00
3:35 PM,79.9,66.9,64,29.93,10.0,West,11.5,-,N/A,,Scattered Clouds,260,2013-06-16 20:35:00
3:55 PM,80.6,67.5,64,29.93,10.0,WSW,10.4,16.1,N/A,,Scattered Clouds,240,2013-06-16 20:55:00
4:15 PM,80.6,66.4,62,29.93,10.0,West,9.2,-,N/A,,Clear,270,2013-06-16 21:15:00
4:35 PM,80.6,65.7,60,29.93,10.0,West,8.1,-,N/A,,Clear,260,2013-06-16 21:35:00
4:55 PM,80.8,65.3,59,29.93,10.0,WSW,6.9,-,N/A,,Clear,250,2013-06-16 21:55:00
5:15 PM,81.0,65.5,59,29.92,10.0,West,9.2,-,N/A,,Scattered Clouds,280,2013-06-16 22:15:00
5:35 PM,80.6,64.9,59,29.92,10.0,WSW,10.4,-,N/A,,Scattered Clouds,240,2013-06-16 22:35:00
5:55 PM,80.8,65.1,59,29.92,10.0,West,9.2,-,N/A,,Scattered Clouds,270,2013-06-16 22:55:00
6:15 PM,80.6,64.8,58,29.92,10.0,WNW,8.1,-,N/A,,Scattered Clouds,290,2013-06-16 23:15:00
6:35 PM,80.6,64.9,59,29.91,10.0,West,6.9,-,N/A,,Scattered Clouds,280,2013-06-16 23:35:00
6:55 PM,80.2,64.6,59,29.92,10.0,West,5.8,-,N/A,,Clear,270,2013-06-16 23:55:00
7:15 PM,79.3,65.3,62,29.91,10.0,West,5.8,-,N/A,,Clear,280,2013-06-17 00:15:00
7:35 PM,78.8,65.7,64,29.91,10.0,WSW,3.5,-,N/A,,Clear,250,2013-06-17 00:35:00
7:55 PM,77.5,65.8,67,29.91,10.0,WSW,3.5,-,N/A,,Clear,250,2013-06-17 00:55:00
8:15 PM,74.5,66.2,75,29.91,10.0,Calm,Calm,-,N/A,,Clear,0,2013-06-17 01:15:00
8:35 PM,73.9,65.8,76,29.91,10.0,Calm,Calm,-,N/A,,Clear,0,2013-06-17 01:35:00
8:55 PM,70.7,66.7,87,29.92,10.0,Calm,Calm,-,N/A,,Clear,0,2013-06-17 01:55:00
9:15 PM,70.0,66.2,88,29.92,10.0,Calm,Calm,-,N/A,,Clear,0,2013-06-17 02:15:00
9:35 PM,69.1,66.4,91,29.92,10.0,Calm,Calm,-,N/A,,Clear,0,2013-06-17 02:35:00
9:55 PM,68.0,65.8,93,29.92,10.0,SSW,3.5,-,N/A,,Clear,210,2013-06-17 02:55:00
10:15 PM,68.0,65.5,92,29.93,10.0,SSW,3.5,-,N/A,,Clear,210,2013-06-17 03:15:00
10:35 PM,67.6,64.4,89,29.94,10.0,SW,3.5,-,N/A,,Clear,220,2013-06-17 03:35:00
10:55 PM,67.6,63.7,87,29.94,10.0,SW,5.8,-,N/A,,Clear,230,2013-06-17 03:55:00
11:15 PM,69.3,63.5,82,29.94,10.0,WSW,5.8,-,N/A,,Clear,250,2013-06-17 04:15:00
11:35 PM,69.8,63.7,81,29.96,10.0,WSW,4.6,-,N/A,,Clear,250,2013-06-17 04:35:00
11:55 PM,66.4,63.3,90,29.95,10.0,Calm,Calm,-,N/A,,Clear,0,2013-06-17 04:55:00